[[{"header":{"parameterUnit":"m.s-1","parameterCategory":1,"la1":30.2991,"la2":30.254,"lo1":-89.0895,"lo2":-89.0444,"dy":0.0017,"dx":0.0017,"nx":28,"ny":28,"refTime":"2025-09-02T21:00:00:Z","depth":0,"parameterNumber":2,"parameterNumberName":"U-component_of_WINDS"},"data":[0,0,0,0,0,0,0,0,0,0,0,0,0,0,0,0,0,0,0,0,0,0,0,0,0,0,0,0,0,0,0,0,0,0,0,0,0,0,0,0,0,0,0,0,0,0,0,0,0,0,0,0,0,0,0,0,0,0,-1.9981,-1.9981,0,-1.9946,-1.9945,-1.9945,-1.9856,-1.9854,-1.9852,-1.985,-1.9816,-1.9817,-1.9818,0,0,0,0,0,0,0,0,0,0,0,0,0,-1.9976,-1.9976,-1.9981,-1.9981,-1.9981,-1.9946,-1.9945,-1.9945,-1.9856,-1.9854,-1.9852,-1.9849,-1.9816,-1.9817,-1.9818,0,0,0,0,0,0,0,0,0,0,0,0,0,-1.9963,-1.9976,-1.9981,-1.9932,-1.9927,-1.9946,-1.9945,-1.9945,-1.9857,-1.9854,-1.9851,-1.9848,-1.9815,-1.9817,-1.9818,-1.9882,0,0,-1.9822,-1.9822,0,0,0,0,0,0,0,0,-1.9964,-1.9963,-1.994,-1.9935,-1.993,-1.9902,-1.9931,-1.9924,-1.9857,-1.9884,-1.985,-1.9847,-1.9847,-1.9846,-1.9845,-1.9881,-1.9879,-1.9822,-1.9823,-1.9823,-1.9824,0,0,0,0,0,0,0,-1.9965,-1.9964,-1.9967,-1.994,-1.9934,-1.9913,-1.9908,-1.9929,-1.9882,-1.9881,-1.9875,-1.9871,-1.9844,-1.9844,-1.9844,-1.9879,-1.9822,-1.9823,-1.9824,-1.9824,-1.9966,-1.9969,0,0,0,0,0,0,-1.9972,-1.9966,-1.9968,-1.9966,-1.994,-1.9915,-1.991,-1.9914,-1.9881,-1.9873,-1.9874,-1.9867,-1.9843,-1.9842,-1.9842,-1.9915,-1.9823,-1.9824,-1.9825,-1.9963,-1.9967,-1.997,0,0,0,0,0,0,-1.9973,-1.9974,-1.997,-1.9964,-1.9962,-1.9918,-1.9924,-1.9915,-1.9915,-1.9876,-1.9867,-1.9883,-1.9841,-1.984,-1.9873,-1.9913,-1.9825,-1.9826,-1.996,-1.9964,-1.9969,-2.0063,0,0,0,0,0,0,-1.9973,-1.9974,-1.9997,-1.9965,-1.9963,-2.0001,-1.9927,-1.9916,-1.9917,-1.9908,-1.9882,-1.9875,-1.9839,-1.9872,-1.9874,-1.9913,-1.9827,-1.9956,-1.9962,-1.9967,-2.0056,-2.007,-2.0082,0,0,0,0,0,-1.9973,-2.0025,-1.9999,-2.0,-1.9991,-2.0003,-2.0002,-1.9959,-1.9921,-1.9944,-1.9919,-1.9875,-1.9909,-1.9876,-1.9878,-1.9918,-1.9953,-1.996,-1.9967,-2.005,-2.0067,-2.0081,0,0,0,0,0,0,-2.0063,-2.002,-1.999,-2.0034,-2.0023,-1.9988,-2.0016,-1.9978,-1.9978,-1.997,-1.9918,-1.9913,-1.9953,-1.9939,-1.9903,-1.9979,-1.9924,-1.9932,-1.9986,-2.0002,-2.0015,-2.0017,-1.9828,0,0,0,0,0,-2.0089,-2.0101,-2.0063,-2.0106,-2.0101,-2.006,-2.0064,-2.0032,-2.0019,-2.0014,-1.9991,-1.9981,-1.9989,-1.9995,-2.0,-2.0054,-2.0047,-2.0083,-2.0096,-2.0107,-2.0113,-2.0141,-2.0157,-1.9993,-1.9992,-1.9992,0,0,-2.014,-2.0118,-2.013,-2.0123,-2.0111,-2.0126,-2.0057,-2.0076,-2.0087,-2.0017,-2.0046,-2.0029,-2.0014,-2.0058,-2.0076,-2.0047,-2.0158,-2.0115,-2.0124,-2.0125,-2.015,-2.0165,-2.0179,-1.9997,-1.9996,-1.9996,0,0,-2.0242,-2.0227,-2.026,-2.025,-2.0232,-2.0204,-2.0213,-2.0184,-2.017,-2.0198,-2.0146,-2.016,-2.0175,-2.0166,-2.0164,-2.0265,-2.0224,-2.0268,-2.0336,-2.0364,-2.0377,-2.0388,-2.0424,-2.0437,-2.0275,-2.0276,-2.0276,0,-2.0308,-2.0328,-2.0282,-2.0305,-2.0304,-2.0242,-2.0276,-2.0268,-2.0253,-2.0255,-2.0223,-2.0241,-2.0226,-2.0267,-2.0292,-2.0292,-2.0301,-2.027,-2.0378,-2.0389,-2.0399,-2.0432,-2.0446,-2.0281,-2.028,-2.028,-2.0279,0,-2.0411,-2.0426,-2.0456,-2.0442,-2.0445,-2.0474,-2.0433,-2.0441,-2.041,-2.0387,-2.0417,-2.0398,-2.0398,-2.0406,-2.0376,-2.0443,-2.0426,-2.0388,-2.0331,-2.0421,-2.0451,-2.0464,-2.0289,-2.0287,-2.0285,-2.0284,0,0,-2.0566,-2.0529,-2.054,-2.0534,-2.0511,-2.0522,-2.0549,-2.0548,-2.0557,-2.055,-2.0571,-2.0586,-2.055,-2.0548,-2.0516,-2.0541,-2.0622,-2.0499,-2.0498,-2.0522,-2.0696,-2.0724,-2.074,-2.0596,-2.0599,-2.06,-2.0697,0,-2.0662,-2.0703,-2.0663,-2.0713,-2.0727,-2.0669,-2.0692,-2.0681,-2.0661,-2.067,-2.0647,-2.0659,-2.0611,-2.0609,-2.0631,-2.0608,-2.0656,-2.0601,-2.0616,-2.0617,-2.062,-2.0756,-2.0785,-2.0877,-2.0708,-2.071,-2.0712,0,-2.0777,-2.0775,-2.0826,-2.0801,-2.0805,-2.0826,-2.0824,-2.0833,-2.0821,-2.0804,-2.0802,-2.0765,-2.079,-2.0736,-2.077,-2.0733,-2.0737,-2.0728,-2.073,-2.0729,-2.0669,-2.0757,-2.0905,-2.0919,-2.073,-2.0729,-2.0727,0,-2.0885,-2.0895,-2.0927,-2.0923,-2.0895,-2.0911,-2.09,-2.0884,-2.0887,-2.0886,-2.0887,-2.089,-2.089,-2.0893,-2.0858,-2.0822,-2.0897,-2.084,-2.0884,-2.0885,-2.0901,-2.09,-2.105,-2.0906,-2.0906,-2.0905,-2.0905,0,-2.0994,-2.1028,-2.0975,-2.0994,-2.1031,-2.0986,-2.1023,-2.1006,-2.0993,-2.1009,-2.0961,-2.0977,-2.0929,-2.0941,-2.0914,-2.0947,-2.0948,-2.0935,-2.0927,-2.0939,-2.094,-2.094,-2.0932,-2.0909,-2.0908,-2.0907,-2.0907,0,-2.112,-2.1086,-2.1116,-2.1087,-2.1081,-2.1109,-2.1084,-2.1102,-2.1079,-2.11,-2.1102,-2.1066,-2.1077,-2.1043,-2.1049,-2.103,-2.1078,-2.106,-2.1082,-2.1076,-2.1122,-2.1118,-2.1276,-2.1295,-2.114,-2.1141,-2.1142,0,-2.1191,-2.1215,-2.1189,-2.1196,-2.1188,-2.12,-2.1202,-2.116,-2.1166,-2.1154,-2.1173,-2.118,-2.1184,-2.1205,-2.118,-2.1185,-2.1166,-2.1221,-2.1166,-2.1177,-2.1166,-2.1165,-2.1167,-2.1232,-2.1234,-2.1236,-2.1237,0,-2.1321,-2.1304,-2.1309,-2.131,-2.1315,-2.1313,-2.1308,-2.1317,-2.1272,-2.1281,-2.1292,-2.1294,-2.1301,-2.1309,-2.1309,-2.1298,-2.1261,-2.1255,-2.1265,-2.1277,-2.1288,-2.1282,-2.1112,-2.1251,-2.125,-2.1249,-2.1248,-2.1247,-2.1421,-2.144,-2.1425,-2.1433,-2.1426,-2.1423,-2.1438,-2.1417,-2.1425,-2.1426,-2.1401,-2.1418,-2.1406,-2.1401,-2.1395,-2.1408,-2.1382,-2.1397,-2.1401,-2.1405,-2.1412,-2.1287,-2.1408,-2.1407,-2.1407,-2.1406,-2.1406,0,-2.1548,-2.1536,-2.1544,-2.1539,-2.1546,-2.151,-2.1504,-2.1512,-2.1527,-2.1519,-2.1523,-2.1537,-2.1545,-2.1521,-2.1526,-2.1541,-2.1524,-2.1543,-2.1541,-2.154,-2.1435,-2.1425,-2.1557,-2.1557,-2.1557,-2.1557,-2.1557,-2.1557,-2.1615,-2.1646,-2.1627,-2.1654,-2.1641,-2.1656,-2.1655,-2.1653,-2.1646,-2.1663,-2.1669,-2.1654,-2.164,-2.1643,-2.165,-2.1643,-2.1646,-2.1672,-2.1659,-2.1562,-2.1547,-2.1533,-2.1523,-2.1673,-2.1674,-2.1762,-2.1763,-2.1764]},{"header":{"parameterUnit":"m.s-1","parameterCategory":1,"la1":30.2991,"la2":30.254,"lo1":-89.0895,"lo2":-89.0444,"dy":0.0017,"dx":0.0017,"nx":28,"ny":28,"refTime":"2025-09-02T21:00:00:Z","depth":0,"parameterNumber":3,"parameterNumberName":"V-component_of_WINDS"},"data":[0,0,0,0,0,0,0,0,0,0,0,0,0,0,0,0,0,0,0,0,0,0,0,0,0,0,0,0,0,0,0,0,0,0,0,0,0,0,0,0,0,0,0,0,0,0,0,0,0,0,0,0,0,0,0,0,0,0,2.2562,2.2562,0,2.2574,2.2574,2.2574,2.2613,2.2614,2.2615,2.2615,2.2624,2.2624,2.2623,0,0,0,0,0,0,0,0,0,0,0,0,0,2.2569,2.2568,2.2562,2.2562,2.2562,2.2574,2.2574,2.2574,2.2613,2.2614,2.2615,2.2616,2.2624,2.2624,2.2623,0,0,0,0,0,0,0,0,0,0,0,0,0,2.2572,2.2568,2.2562,2.2583,2.2585,2.2574,2.2574,2.2574,2.2612,2.2614,2.2615,2.2616,2.2625,2.2624,2.2623,2.2592,0,0,2.262,2.262,0,0,0,0,0,0,0,0,2.2571,2.2571,2.258,2.2581,2.2584,2.2593,2.258,2.258,2.2612,2.2602,2.2615,2.2617,2.2613,2.2613,2.2612,2.2592,2.2593,2.262,2.262,2.2619,2.2619,0,0,0,0,0,0,0,2.2571,2.2571,2.2567,2.258,2.2582,2.2591,2.2592,2.258,2.26,2.2603,2.2606,2.2607,2.2614,2.2613,2.2613,2.2593,2.262,2.2619,2.2619,2.2619,2.2548,2.2546,0,0,0,0,0,0,2.2568,2.2571,2.2566,2.2567,2.2581,2.2589,2.2592,2.2589,2.26,2.2603,2.2606,2.2609,2.2614,2.2614,2.2613,2.2577,2.2619,2.2619,2.2618,2.2549,2.2547,2.2546,0,0,0,0,0,0,2.2568,2.2568,2.2566,2.257,2.257,2.2588,2.2585,2.2588,2.2587,2.2602,2.2606,2.2601,2.2615,2.2614,2.2597,2.2578,2.2618,2.2617,2.2551,2.2548,2.2546,2.2504,0,0,0,0,0,0,2.2568,2.2567,2.2556,2.2569,2.257,2.255,2.2583,2.2588,2.2586,2.259,2.2599,2.2601,2.2616,2.2598,2.2596,2.2577,2.2617,2.2552,2.255,2.2547,2.2507,2.2501,2.2496,0,0,0,0,0,2.2569,2.2543,2.2556,2.2555,2.2556,2.2549,2.2549,2.2567,2.2585,2.2573,2.2583,2.2601,2.2581,2.2596,2.2594,2.2575,2.2554,2.255,2.2547,2.251,2.2502,2.2496,0,0,0,0,0,0,2.2526,2.2545,2.2559,2.2537,2.2541,2.2555,2.2541,2.2558,2.2556,2.256,2.2581,2.2583,2.2562,2.2567,2.2584,2.2545,2.257,2.2567,2.2542,2.2535,2.2529,2.2528,2.2616,0,0,0,0,0,2.2515,2.2508,2.2525,2.2504,2.2505,2.2523,2.252,2.2534,2.2539,2.254,2.2548,2.2551,2.2545,2.2541,2.2536,2.2509,2.2511,2.2495,2.2489,2.2484,2.248,2.2465,2.2458,2.2536,2.2536,2.2536,0,0,2.249,2.2499,2.2494,2.2495,2.25,2.2492,2.2524,2.2514,2.2507,2.2538,2.2522,2.2529,2.2533,2.2511,2.2501,2.2514,2.2459,2.248,2.2476,2.2475,2.2461,2.2454,2.2447,2.2533,2.2534,2.2534,0,0,2.244,2.2447,2.2431,2.2435,2.2443,2.2455,2.2451,2.2463,2.2468,2.2453,2.2476,2.2469,2.2459,2.2461,2.246,2.2413,2.243,2.2411,2.2379,2.2365,2.2359,2.2353,2.2335,2.2329,2.2407,2.2407,2.2407,0,2.2408,2.2397,2.242,2.2408,2.2408,2.2437,2.242,2.2423,2.2428,2.2426,2.2441,2.2429,2.2434,2.2413,2.2401,2.24,2.2395,2.2409,2.2358,2.2353,2.2348,2.2331,2.2324,2.2405,2.2405,2.2405,2.2406,0,2.2357,2.2349,2.2335,2.234,2.2339,2.2324,2.2343,2.2339,2.2353,2.2364,2.2348,2.2355,2.2353,2.2349,2.2362,2.2329,2.2336,2.2354,2.238,2.2338,2.2322,2.2316,2.2401,2.2402,2.2403,2.2404,0,0,2.2279,2.2299,2.2293,2.2295,2.2306,2.23,2.2287,2.2286,2.2281,2.2284,2.2273,2.2264,2.2281,2.2281,2.2295,2.2282,2.2243,2.2302,2.2302,2.2289,2.2206,2.2191,2.2183,2.2255,2.2254,2.2253,2.2205,0,2.2232,2.2211,2.2231,2.2206,2.2199,2.2227,2.2216,2.222,2.223,2.2225,2.2235,2.2228,2.2252,2.2251,2.2241,2.225,2.2226,2.2254,2.2243,2.2243,2.224,2.2175,2.216,2.2114,2.2199,2.2198,2.2197,0,2.2173,2.2174,2.2148,2.2161,2.2159,2.2148,2.2149,2.2144,2.215,2.2158,2.2158,2.2176,2.2163,2.2189,2.2171,2.219,2.2187,2.2191,2.219,2.2188,2.2216,2.217,2.21,2.2092,2.2188,2.2189,2.219,0,2.2117,2.2112,2.2097,2.2098,2.2113,2.2105,2.2111,2.2118,2.2116,2.2117,2.2116,2.2114,2.2113,2.2111,2.2127,2.2145,2.2107,2.2135,2.2112,2.2111,2.2101,2.2101,2.2027,2.2101,2.2101,2.2102,2.2102,0,2.206,2.2043,2.2072,2.2062,2.2043,2.2067,2.2047,2.2056,2.2063,2.2054,2.2079,2.207,2.2093,2.2087,2.21,2.2082,2.2082,2.2087,2.209,2.2084,2.2083,2.208,2.2083,2.21,2.21,2.2101,2.2101,0,2.1994,2.2013,2.1997,2.2013,2.2017,2.2002,2.2016,2.2007,2.2019,2.2008,2.2006,2.2025,2.2018,2.2035,2.2031,2.204,2.2014,2.2024,2.2012,2.2015,2.199,2.1992,2.1911,2.1901,2.1983,2.1982,2.1982,0,2.1956,2.1944,2.1959,2.1956,2.196,2.1955,2.1953,2.1976,2.1973,2.198,2.197,2.1966,2.1964,2.1952,2.1964,2.1961,2.1969,2.1942,2.1969,2.1963,2.1967,2.1967,2.1966,2.1935,2.1934,2.1933,2.1933,0,2.1886,2.1896,2.1894,2.1895,2.1893,2.1894,2.1897,2.1893,2.1917,2.1913,2.1907,2.1906,2.1903,2.1898,2.1898,2.1903,2.1921,2.1924,2.1918,2.1911,2.1904,2.1906,2.1995,2.1925,2.1926,2.1927,2.1927,2.1927,2.1832,2.1822,2.1831,2.1828,2.1833,2.1836,2.1828,2.184,2.1836,2.1836,2.1849,2.1841,2.1847,2.1849,2.1853,2.1846,2.1858,2.185,2.1848,2.1845,2.184,2.1907,2.1846,2.1846,2.1846,2.1846,2.1847,0,2.1762,2.177,2.1767,2.1771,2.1768,2.1788,2.1792,2.1788,2.1781,2.1786,2.1784,2.1778,2.1773,2.1786,2.1783,2.1775,2.1784,2.1774,2.1774,2.1774,2.183,2.1834,2.1767,2.1767,2.1767,2.1767,2.1767,2.1767,2.1725,2.171,2.1721,2.1708,2.1716,2.1709,2.171,2.1712,2.1716,2.1708,2.1705,2.1714,2.1722,2.1721,2.1717,2.1721,2.1718,2.1705,2.1711,2.1763,2.177,2.1778,2.1782,2.1705,2.1705,2.1656,2.1656,2.1655]}]]